Flag Weather past 2 weeks in West Covina, California, U.S.A.

Now
79 °F

Sunny.


Feels Like: 78 °F
Forecast: 52 / 75 °F
Wind: No wind

Location: Fullerton Municipal Airport

Current Time: Nov 23, 2014 at 2:43:12 PM

Latest Report: Nov 23, 2014 at 1:53 PM


Visibility: 10 mi

Pressure: 30.04 "Hg

Humidity: 15%

Dew point: 28 °F

Location of West CovinaLocation

Historic Weather in West Covina — Graph

°F

West Covina temperature yesterday

Maximum temperature yesterday: 73 °F (at 12:53 PM)
Minimum temperature yesterday: 53 °F (at 5:53 AM)
Average temperature yesterday: 62 °F

Past Weeks' High & Low Weather Summary

 TemperatureHumidityPressure
High91 °F (Nov 8, 1:53 PM)97% (Nov 9, 5:53 AM)30.16 "Hg (Nov 9, 5:53 AM)
Low52 °F (Nov 23, 5:53 AM)3% (Nov 16, 2:53 PM)29.80 "Hg (Nov 9, 3:53 PM)
Average64 °F58%30.01 "Hg
* Reported Nov 8 12:53 PM — Nov 23 12:53 PM, West Covina, Weather by CustomWeather, © 2014

Note: Actual official high and low records may vary slightly from our data, if they occured in-between our weather recording intervals... More about our weather records

Advertising

West Covina weather history for previous 24 hours

 ConditionsComfort  
Time TempWeatherWind HumidityBarometerVisibility
12:53 PM
Nov 23
79 °FSunny.No wind18%30.05 "Hg10 mi
11:53 AM76 °FSunny.3 mph23%30.08 "Hg10 mi
10:53 AM73 °FSunny.6 mph40%30.10 "Hg10 mi
9:53 AM68 °FSunny.5 mph57%30.12 "Hg10 mi
8:53 AM64 °FSunny.No wind68%30.12 "Hg10 mi
7:53 AM55 °FSunny.No wind90%30.11 "Hg10 mi
6:53 AM52 °FSunny.3 mph93%30.08 "Hg10 mi
5:53 AM52 °FClear.No wind93%30.06 "Hg10 mi
4:53 AM53 °FClear.3 mph93%30.04 "Hg10 mi
3:53 AM54 °FPassing clouds.6 mph90%30.03 "Hg10 mi
2:53 AM55 °FPassing clouds.6 mph90%30.03 "Hg10 mi
1:53 AM56 °FPassing clouds.No wind90%30.04 "Hg10 mi
12:53 AM56 °FClear.5 mph90%30.02 "Hg10 mi
11:53 PM
Nov 22
57 °FClear.3 mph90%30.03 "Hg10 mi
10:53 PM58 °FClear.3 mph90%30.03 "Hg10 mi
9:53 PM59 °FOvercast.No wind87%30.03 "Hg10 mi
8:53 PM59 °FClear.No wind90%30.04 "Hg10 mi
7:53 PM63 °FClear.3 mph81%30.02 "Hg10 mi
6:53 PM63 °FClear.No wind81%30.01 "Hg10 mi
5:53 PM64 °FClear.3 mph81%30.00 "Hg10 mi
4:53 PM66 °FClear.7 mph73%30.00 "Hg10 mi
3:53 PM69 °FSunny.6 mph63%30.00 "Hg10 mi
2:53 PM70 °FSunny.7 mph55%30.01 "Hg10 mi
Weather by CustomWeather, © 2014

See weather overviewHow to use our weather pages